Location: *
(43.9905°S, 176.4941°W)
Time: 05:41:41
(UTC+00:00)

PSLV R/B - Pass Details

Date: 08 December 2019
Orbit: 599 x 701 km, 97.9° (Epoch: 19 January)

Event Time Altitude Azimuth Distance (km) Brightness Sun altitude
Exits shadow 11:50:08 48° 297° (WNW) 921 4.1 -23.2°
Maximum altitude 11:50:33 50° 279° (W) 905 4.2 -23.2°
Drops below altitude 10° 11:55:16 10° 203° (SSW) 2,203 7.2 -23.2°
Sets 11:57:37 0° 198° (SSW) 3,127 8.3 -23.1°
